LHA4MK KPAE-KBZN

Flight info

Callsign LHA4MK
Flight time 1h 13m
Altitude 37000
Route SEA DCT NORMY DCT MODDA DCT STEVS DCT EATZZ
Aircraft A320/M-SDE1E2FGIJ1RWYZE3/LB1

Departure

Time 2026-04-24 09:46
Airport Seattle Paine Field International Airport (KPAE)

Arrival

Time 2026-04-24 10:59
Airport Bozeman Yellowstone International Airport (KBZN)
Time Latitude Longitude Altitude Speed Heading
2026-04-24 09:24 47.90833 -122.27950 569 ft 0 kts 65°
2026-04-24 09:39 47.90832 -122.27951 569 ft 1 kts 65°
2026-04-24 09:39 47.90820 -122.27979 571 ft 4 kts 29°
2026-04-24 09:39 47.90798 -122.27983 571 ft 4 kts 330°
2026-04-24 09:40 47.90785 -122.27969 571 ft 1 kts 315°
2026-04-24 09:40 47.90784 -122.27966 571 ft 0 kts 315°
2026-04-24 09:42 47.90784 -122.27967 571 ft 0 kts 315°
2026-04-24 09:42 47.90790 -122.27976 571 ft 4 kts 315°
2026-04-24 09:42 47.90829 -122.28029 573 ft 9 kts 322°
2026-04-24 09:42 47.90846 -122.28113 569 ft 10 kts 236°
2026-04-24 09:43 47.90785 -122.28191 569 ft 13 kts 219°
2026-04-24 09:43 47.90745 -122.28321 569 ft 15 kts 234°
2026-04-24 09:43 47.90641 -122.28337 572 ft 17 kts 180°
2026-04-24 09:43 47.90511 -122.28335 571 ft 19 kts 178°
2026-04-24 09:44 47.90368 -122.28327 573 ft 22 kts 179°
2026-04-24 09:44 47.90201 -122.28322 572 ft 26 kts 179°
2026-04-24 09:44 47.90020 -122.28319 573 ft 27 kts 179°
2026-04-24 09:44 47.89844 -122.28314 570 ft 24 kts 179°
2026-04-24 09:45 47.89694 -122.28337 570 ft 18 kts 223°
2026-04-24 09:45 47.89678 -122.28469 570 ft 13 kts 274°
2026-04-24 09:45 47.89705 -122.28535 570 ft 8 kts 343°
2026-04-24 09:45 47.89778 -122.28538 570 ft 20 kts 360°
2026-04-24 09:46 47.90211 -122.28547 573 ft 100 kts 359°
2026-04-24 09:46 47.91107 -122.28558 673 ft 147 kts
2026-04-24 09:46 47.92135 -122.28568 1338 ft 154 kts
2026-04-24 09:46 47.93251 -122.28589 1988 ft 166 kts 359°
2026-04-24 09:47 47.94483 -122.28619 2381 ft 189 kts 359°
2026-04-24 09:47 47.95856 -122.28661 2879 ft 210 kts 358°
2026-04-24 09:47 47.97285 -122.29251 3704 ft 222 kts 329°
2026-04-24 09:47 47.98326 -122.31002 4587 ft 239 kts 300°
2026-04-24 09:48 47.98681 -122.33482 5079 ft 254 kts 269°
2026-04-24 09:48 47.98137 -122.36020 5578 ft 264 kts 238°
2026-04-24 09:48 47.96842 -122.37991 6114 ft 269 kts 218°
2026-04-24 09:48 47.95320 -122.39643 6719 ft 272 kts 215°
2026-04-24 09:49 47.93743 -122.41279 7348 ft 282 kts 215°
2026-04-24 09:49 47.92088 -122.42911 7989 ft 289 kts 208°
2026-04-24 09:49 47.90152 -122.43810 8832 ft 298 kts 185°
2026-04-24 09:49 47.88053 -122.43566 9571 ft 308 kts 167°
2026-04-24 09:50 47.85925 -122.42967 10419 ft 315 kts 167°
2026-04-24 09:50 47.83752 -122.42334 11183 ft 322 kts 167°
2026-04-24 09:50 47.81499 -122.41676 11679 ft 341 kts 167°
2026-04-24 09:50 47.79084 -122.40976 11951 ft 365 kts 167°
2026-04-24 09:51 47.76522 -122.40243 12365 ft 382 kts 168°
2026-04-24 09:51 47.73879 -122.39494 13002 ft 391 kts 168°
2026-04-24 09:51 47.71177 -122.38728 13657 ft 400 kts 168°
2026-04-24 09:51 47.68418 -122.37952 14306 ft 407 kts 168°
2026-04-24 09:52 47.65617 -122.37165 14944 ft 412 kts 168°
2026-04-24 09:52 47.62783 -122.36370 15593 ft 417 kts 169°
2026-04-24 09:52 47.59912 -122.35568 16231 ft 422 kts 169°
2026-04-24 09:52 47.57017 -122.34755 16860 ft 426 kts 169°
2026-04-24 09:53 47.54084 -122.33924 17502 ft 431 kts 169°
2026-04-24 09:53 47.51215 -122.32592 18134 ft 436 kts 155°
2026-04-24 09:53 47.48599 -122.30313 18713 ft 438 kts 140°
2026-04-24 09:53 47.46407 -122.27196 19278 ft 436 kts 124°
2026-04-24 09:54 47.44776 -122.23457 19866 ft 431 kts 109°
2026-04-24 09:54 47.43778 -122.19338 20467 ft 423 kts 95°
2026-04-24 09:54 47.43416 -122.15084 21065 ft 414 kts 83°
2026-04-24 09:54 47.43379 -122.10818 21646 ft 416 kts 82°
2026-04-24 09:55 47.43345 -122.06536 22209 ft 419 kts 82°
2026-04-24 09:55 47.43310 -122.02218 22769 ft 422 kts 82°
2026-04-24 09:55 47.43270 -121.97859 23370 ft 425 kts 82°
2026-04-24 09:55 47.43224 -121.93484 23910 ft 428 kts 82°
2026-04-24 09:56 47.43174 -121.89070 24367 ft 431 kts 82°
2026-04-24 09:56 47.43120 -121.84630 24812 ft 434 kts 82°
2026-04-24 09:56 47.43064 -121.80150 25239 ft 438 kts 83°
2026-04-24 09:56 47.43006 -121.75639 25659 ft 441 kts 82°
2026-04-24 09:57 47.42947 -121.71094 26121 ft 444 kts 82°
2026-04-24 09:57 47.42885 -121.66525 26592 ft 447 kts 83°
2026-04-24 09:57 47.42816 -121.61917 27041 ft 450 kts 83°
2026-04-24 09:57 47.42741 -121.57281 27471 ft 453 kts 83°
2026-04-24 09:58 47.42576 -121.52605 27903 ft 462 kts 89°
2026-04-24 09:58 47.41982 -121.47888 28430 ft 473 kts 97°
2026-04-24 09:58 47.41142 -121.43166 28794 ft 477 kts 97°
2026-04-24 09:58 47.40306 -121.38477 29177 ft 481 kts 97°
2026-04-24 09:59 47.39452 -121.33691 29592 ft 483 kts 97°
2026-04-24 09:59 47.38595 -121.28885 30002 ft 486 kts 97°
2026-04-24 09:59 47.37727 -121.24042 30395 ft 489 kts 97°
2026-04-24 09:59 47.36852 -121.19174 30708 ft 494 kts 97°
2026-04-24 10:00 47.35968 -121.14263 31086 ft 496 kts 97°
2026-04-24 10:00 47.35080 -121.09354 31551 ft 495 kts 97°
2026-04-24 10:00 47.34190 -121.04452 32054 ft 495 kts 98°
2026-04-24 10:00 47.33301 -120.99556 32526 ft 494 kts 98°
2026-04-24 10:01 47.32410 -120.94663 33027 ft 494 kts 98°
2026-04-24 10:01 47.31518 -120.89783 33525 ft 493 kts 98°
2026-04-24 10:01 47.30625 -120.84903 34055 ft 494 kts 97°
2026-04-24 10:01 47.29732 -120.80012 34426 ft 495 kts 97°
2026-04-24 10:02 47.28836 -120.75114 34849 ft 495 kts 98°
2026-04-24 10:02 47.27938 -120.70234 35261 ft 494 kts 98°
2026-04-24 10:02 47.27034 -120.65353 35696 ft 493 kts 99°
2026-04-24 10:02 47.26129 -120.60483 36144 ft 492 kts 99°
2026-04-24 10:03 47.25227 -120.55642 36624 ft 490 kts 99°
2026-04-24 10:03 47.24532 -120.50783 37035 ft 483 kts 93°
2026-04-24 10:03 47.24002 -120.45901 37156 ft 482 kts 93°
2026-04-24 10:03 47.23472 -120.41032 37161 ft 482 kts 93°
2026-04-24 10:04 47.22404 -120.31315 37161 ft 481 kts 94°
2026-04-24 10:04 47.21318 -120.21596 37158 ft 481 kts 94°
2026-04-24 10:05 47.20224 -120.11890 37161 ft 482 kts 94°
2026-04-24 10:05 47.19130 -120.02170 37159 ft 482 kts 94°
2026-04-24 10:06 47.17471 -119.87584 37153 ft 482 kts 94°
2026-04-24 10:07 47.16347 -119.77865 37160 ft 483 kts 94°
2026-04-24 10:07 47.15217 -119.68135 37165 ft 483 kts 94°
2026-04-24 10:08 47.14095 -119.58480 37171 ft 483 kts 94°
2026-04-24 10:08 47.12947 -119.48756 37176 ft 483 kts 94°
2026-04-24 10:09 47.11787 -119.39041 37174 ft 483 kts 94°
2026-04-24 10:09 47.10618 -119.29329 37182 ft 483 kts 94°
2026-04-24 10:10 47.09447 -119.19623 37190 ft 483 kts 94°
2026-04-24 10:10 47.08276 -119.09917 37190 ft 482 kts 94°
2026-04-24 10:11 47.07092 -119.00237 37197 ft 482 kts 95°
2026-04-24 10:11 47.05897 -118.90551 37182 ft 483 kts 95°
2026-04-24 10:12 47.04689 -118.80852 37179 ft 484 kts 95°
2026-04-24 10:12 47.03479 -118.71148 37166 ft 484 kts 95°
2026-04-24 10:13 47.02254 -118.61445 37201 ft 484 kts 95°
2026-04-24 10:13 47.01015 -118.51733 37172 ft 485 kts 96°
2026-04-24 10:14 46.99771 -118.42028 37168 ft 485 kts 96°
2026-04-24 10:14 46.98529 -118.32316 37140 ft 486 kts 96°
2026-04-24 10:15 46.97270 -118.22588 37129 ft 487 kts 96°
2026-04-24 10:15 46.95999 -118.12855 37131 ft 487 kts 96°
2026-04-24 10:16 46.94718 -118.03116 37149 ft 487 kts 96°
2026-04-24 10:16 46.93644 -117.95031 37140 ft 487 kts 97°
2026-04-24 10:17 46.92349 -117.85308 37137 ft 487 kts 96°
2026-04-24 10:17 46.91045 -117.75572 37115 ft 488 kts 97°
2026-04-24 10:18 46.89729 -117.65821 37118 ft 489 kts 97°
2026-04-24 10:18 46.88401 -117.56057 37144 ft 490 kts 97°
2026-04-24 10:19 46.87068 -117.46304 37148 ft 489 kts 97°
2026-04-24 10:19 46.85724 -117.36571 37142 ft 488 kts 97°
2026-04-24 10:20 46.84378 -117.26852 37148 ft 488 kts 97°
2026-04-24 10:20 46.83027 -117.17144 37113 ft 488 kts 97°
2026-04-24 10:21 46.81666 -117.07440 37109 ft 488 kts 97°
2026-04-24 10:21 46.80295 -116.97738 37136 ft 488 kts 98°
2026-04-24 10:22 46.78913 -116.88043 37134 ft 488 kts 98°
2026-04-24 10:22 46.77524 -116.78369 37137 ft 487 kts 98°
2026-04-24 10:23 46.76129 -116.68697 37131 ft 487 kts 98°
2026-04-24 10:23 46.74727 -116.59030 37137 ft 487 kts 98°
2026-04-24 10:24 46.73317 -116.49369 37168 ft 487 kts 99°
2026-04-24 10:24 46.71903 -116.39712 37153 ft 487 kts 99°
2026-04-24 10:25 46.70477 -116.30069 37146 ft 487 kts 99°
2026-04-24 10:25 46.69039 -116.20429 37139 ft 487 kts 99°
2026-04-24 10:26 46.67599 -116.10804 37135 ft 487 kts 99°
2026-04-24 10:26 46.66158 -116.01172 37122 ft 487 kts 99°
2026-04-24 10:27 46.64696 -115.91537 37138 ft 488 kts 100°
2026-04-24 10:27 46.63218 -115.81897 37123 ft 488 kts 100°
2026-04-24 10:28 46.61737 -115.72251 37122 ft 489 kts 100°
2026-04-24 10:28 46.60257 -115.62600 37129 ft 489 kts 100°
2026-04-24 10:29 46.58763 -115.52952 37127 ft 490 kts 100°
2026-04-24 10:29 46.57251 -115.43287 37137 ft 491 kts 100°
2026-04-24 10:30 46.55731 -115.33618 37135 ft 491 kts 100°
2026-04-24 10:30 46.54198 -115.23948 37140 ft 491 kts 101°
2026-04-24 10:31 46.52659 -115.14286 37142 ft 491 kts 101°
2026-04-24 10:31 46.51130 -115.04703 37144 ft 490 kts 101°
2026-04-24 10:32 46.49583 -114.95059 37137 ft 491 kts 101°
2026-04-24 10:32 46.48029 -114.85420 37141 ft 491 kts 101°
2026-04-24 10:33 46.46462 -114.75780 37144 ft 491 kts 101°
2026-04-24 10:33 46.44890 -114.66154 37140 ft 491 kts 101°
2026-04-24 10:34 46.43302 -114.56465 37131 ft 490 kts 101°
2026-04-24 10:34 46.41718 -114.46918 37134 ft 491 kts 101°
2026-04-24 10:35 46.40112 -114.37313 37137 ft 491 kts 102°
2026-04-24 10:35 46.38503 -114.27706 37130 ft 491 kts 102°
2026-04-24 10:36 46.36892 -114.18107 37131 ft 491 kts 102°
2026-04-24 10:36 46.35263 -114.08514 37134 ft 491 kts 102°
2026-04-24 10:37 46.33629 -113.98915 37136 ft 491 kts 102°
2026-04-24 10:37 46.31992 -113.89325 37129 ft 491 kts 102°
2026-04-24 10:38 46.30349 -113.79738 37158 ft 491 kts 102°
2026-04-24 10:38 46.28694 -113.70164 37146 ft 490 kts 103°
2026-04-24 10:39 46.27033 -113.60611 37156 ft 490 kts 103°
2026-04-24 10:39 46.25361 -113.51069 37150 ft 489 kts 103°
2026-04-24 10:40 46.23683 -113.41543 37162 ft 489 kts 103°
2026-04-24 10:40 46.22006 -113.32027 37166 ft 489 kts 103°
2026-04-24 10:41 46.20320 -113.22519 37165 ft 489 kts 103°
2026-04-24 10:41 46.18616 -113.13018 37158 ft 489 kts 103°
2026-04-24 10:41 46.17763 -113.08267 36804 ft 491 kts 103°
2026-04-24 10:42 46.16897 -113.03453 35808 ft 500 kts 103°
2026-04-24 10:42 46.16023 -112.98581 34857 ft 503 kts 103°
2026-04-24 10:42 46.15140 -112.93680 33739 ft 506 kts 103°
2026-04-24 10:42 46.14249 -112.88762 32495 ft 508 kts 103°
2026-04-24 10:43 46.13350 -112.83834 31272 ft 510 kts 104°
2026-04-24 10:43 46.12444 -112.78883 30104 ft 510 kts 104°
2026-04-24 10:43 46.11545 -112.73970 28858 ft 505 kts 104°
2026-04-24 10:43 46.10657 -112.69101 27725 ft 499 kts 104°
2026-04-24 10:44 46.09782 -112.64299 26699 ft 491 kts 104°
2026-04-24 10:44 46.08920 -112.59590 25762 ft 482 kts 104°
2026-04-24 10:44 46.08071 -112.54969 24829 ft 473 kts 105°
2026-04-24 10:44 46.07230 -112.50430 23953 ft 465 kts 105°
2026-04-24 10:45 46.06400 -112.45977 22768 ft 457 kts 105°
2026-04-24 10:45 46.05583 -112.41604 21740 ft 448 kts 105°
2026-04-24 10:45 46.04785 -112.37326 20764 ft 438 kts 105°
2026-04-24 10:45 46.04001 -112.33138 19810 ft 429 kts 105°
2026-04-24 10:46 46.03234 -112.29035 18887 ft 420 kts 105°
2026-04-24 10:46 46.02482 -112.25020 17981 ft 412 kts 105°
2026-04-24 10:46 46.01739 -112.21080 17002 ft 404 kts 105°
2026-04-24 10:46 46.01012 -112.17223 16226 ft 393 kts 105°
2026-04-24 10:47 46.00322 -112.13552 16083 ft 366 kts 105°
2026-04-24 10:47 45.99678 -112.10135 15961 ft 343 kts 106°
2026-04-24 10:47 45.99067 -112.06909 15785 ft 329 kts 106°
2026-04-24 10:47 45.98478 -112.03762 15530 ft 323 kts 103°
2026-04-24 10:48 45.98172 -112.00610 15389 ft 318 kts 96°
2026-04-24 10:48 45.97965 -111.97439 14987 ft 318 kts 96°
2026-04-24 10:48 45.97756 -111.94276 14564 ft 318 kts 96°
2026-04-24 10:48 45.97547 -111.91116 14186 ft 317 kts 96°
2026-04-24 10:49 45.97338 -111.87969 13773 ft 316 kts 96°
2026-04-24 10:49 45.97128 -111.84847 13456 ft 312 kts 96°
2026-04-24 10:49 45.96919 -111.81755 13052 ft 310 kts 96°
2026-04-24 10:49 45.96714 -111.78674 12663 ft 309 kts 95°
2026-04-24 10:50 45.96514 -111.75647 12268 ft 308 kts 95°
2026-04-24 10:50 45.96310 -111.72567 11938 ft 304 kts 95°
2026-04-24 10:50 45.96111 -111.69617 11485 ft 298 kts 94°
2026-04-24 10:50 45.95907 -111.66641 10857 ft 293 kts 94°
2026-04-24 10:51 45.95712 -111.63814 10391 ft 283 kts 94°
2026-04-24 10:51 45.95519 -111.61052 10010 ft 272 kts 94°
2026-04-24 10:51 45.95333 -111.58405 9603 ft 262 kts 94°
2026-04-24 10:51 45.95155 -111.55846 9217 ft 255 kts 93°
2026-04-24 10:52 45.95019 -111.53307 8882 ft 253 kts 85°
2026-04-24 10:52 45.95421 -111.50922 8741 ft 241 kts 62°
2026-04-24 10:52 45.96392 -111.49036 8595 ft 231 kts 40°
2026-04-24 10:52 45.97712 -111.47816 8481 ft 221 kts 28°
2026-04-24 10:53 45.98823 -111.46393 8363 ft 213 kts 62°
2026-04-24 10:53 45.98981 -111.44347 8259 ft 211 kts 106°
2026-04-24 10:53 45.98083 -111.42704 8147 ft 216 kts 150°
2026-04-24 10:53 45.96713 -111.41761 8052 ft 219 kts 146°
2026-04-24 10:54 45.95620 -111.40285 7961 ft 215 kts 130°
2026-04-24 10:54 45.94584 -111.38737 7965 ft 215 kts 133°
2026-04-24 10:54 45.93522 -111.37228 7960 ft 215 kts 133°
2026-04-24 10:54 45.92450 -111.35724 7957 ft 215 kts 133°
2026-04-24 10:55 45.91391 -111.34239 7951 ft 209 kts 134°
2026-04-24 10:55 45.90371 -111.32811 7811 ft 200 kts 133°
2026-04-24 10:55 45.89393 -111.31439 7547 ft 194 kts 133°
2026-04-24 10:55 45.88446 -111.30113 7288 ft 186 kts 133°
2026-04-24 10:56 45.87520 -111.28817 7030 ft 183 kts 133°
2026-04-24 10:56 45.86618 -111.27555 6781 ft 179 kts 133°
2026-04-24 10:56 45.85732 -111.26314 6479 ft 177 kts 133°
2026-04-24 10:56 45.84851 -111.25083 6150 ft 176 kts 133°
2026-04-24 10:57 45.84013 -111.23913 5850 ft 158 kts 135°
2026-04-24 10:57 45.83260 -111.22861 5577 ft 146 kts 135°
2026-04-24 10:57 45.82543 -111.21860 5386 ft 142 kts 135°
2026-04-24 10:57 45.81841 -111.20881 5227 ft 140 kts 135°
2026-04-24 10:58 45.81146 -111.19910 5094 ft 139 kts 135°
2026-04-24 10:58 45.80452 -111.18943 4934 ft 139 kts 135°
2026-04-24 10:58 45.79764 -111.17974 4784 ft 139 kts 136°
2026-04-24 10:58 45.79074 -111.17013 4593 ft 138 kts 136°
2026-04-24 10:59 45.78392 -111.16065 4451 ft 128 kts 136°
2026-04-24 10:59 45.78016 -111.15546 4455 ft 97 kts 136°
2026-04-24 10:59 45.77630 -111.15012 4457 ft 53 kts 136°
2026-04-24 10:59 45.77491 -111.14963 4457 ft 19 kts 232°
2026-04-24 11:00 45.77451 -111.15018 4458 ft 0 kts 228°
2026-04-24 11:04 45.77450 -111.15019 4458 ft 1 kts 228°
2026-04-24 11:04 45.77440 -111.15035 4458 ft 3 kts 228°
2026-04-24 11:04 45.77419 -111.15068 4458 ft 6 kts 231°
2026-04-24 11:05 45.77434 -111.15145 4459 ft 16 kts 307°
2026-04-24 11:05 45.77524 -111.15271 4458 ft 20 kts 316°
2026-04-24 11:05 45.77631 -111.15419 4457 ft 23 kts 316°
2026-04-24 11:05 45.77753 -111.15590 4457 ft 26 kts 315°
2026-04-24 11:06 45.77828 -111.15758 4457 ft 15 kts 246°
2026-04-24 11:06 45.77807 -111.15856 4458 ft 10 kts 315°
2026-04-24 11:06 45.77828 -111.15923 4458 ft 3 kts 267°
2026-04-24 11:06 45.77825 -111.15969 4458 ft 6 kts 251°
2026-04-24 11:07 45.77822 -111.15980 4458 ft 0 kts 249°